Location: Middle Street
(51.7167°N, 0.0333°E)
Time: 19:47:57
(UTC+00:00)

APEX - Pass Details

Date: 20 January 2021
Orbit: 331 x 1088 km, 69.9° (Epoch: 27 February)

Event Time Altitude Azimuth Distance (km) Brightness Sun altitude
Rises 18:29:37 0° 202° (SSW) 3,887 8.1 -18.4°
Reaches altitude 10° 18:32:21 10° 201° (SSW) 2,912 7.4 -18.8°
Maximum altitude 18:39:18 74° 118° (ESE) 1,049 4.5 -19.8°
Enters shadow 18:43:09 25° 39° (NE) 1,804 5.5 -20.4°
